Muscle Shoals, AL

12:18 PM CST on December 06, 2019 (GMT -0600)
Northwest Alabama Regional

Weather History for KMSL - October, 2019

Change the Weather History Date:

Tuesday, October 15, 2019

  Actual Average Record
Temperature  
Mean Temperature 68 °F 62 °F  
Max Temperature 75 °F 75 °F 91 °F (2015)
Min Temperature 62 °F 50 °F 33 °F (1921)
Degree Days  
Heating Degree Days 0 5  
Month to date heating degree days 48  
Since 1 July heating degree days 63  
Cooling Degree Days 4 2  
Month to date cooling degree days 42  
Year to date cooling degree days 1844  
Growing Degree Days 18 (Base 50)    
Moisture  
Dew Point 61 °F    
Average Humidity 75    
Maximum Humidity 90    
Minimum Humidity 51    
Precipitation  
Precipitation 0.04 in 0.10 in 4.02 in (1919)
Month to date precipitation 1.58  
Year to date precipitation 41.01  
Snow  
Snow 0.00 in - - ()
Month to date snowfall  
Since 1 July snowfall  
Since 1 September snowfall  
Snow Depth -    
Sea Level Pressure  
Sea Level Pressure 29.96 in    
Wind  
Wind Speed 2 mph (South)    
Max Wind Speed 9 mph    
Max Gust Speed -    
Visibility 9 miles    
Events Rain    
T = Trace of Precipitation, MM = Missing Value Source: NWS Daily Summary

Daily Weather History Graph

Daily Weather History Graph

Search for Another Location

Airport or City:

Astronomy

Oct. 15, 2019 Rise Set
Actual Time 6:55 AM CDT 6:15 PM CDT
Civil Twilight 6:30 AM CDT 6:41 PM CDT
Nautical Twilight 6:01 AM CDT 7:10 PM CDT
Astronomical Twilight 5:32 AM CDT 7:39 PM CDT
Moon 7:38 PM CDT (10/15) 8:24 AM CDT (10/15)
Length of Visible Light 12h 10m
Length of Day
11h 19m
Full, 97% of the Moon is Illuminated
Oct 15
Full
Oct 21
Last Quarter
Oct 27
New
Nov 4
First Quarter
Nov 12
Full

Hourly Weather History & Observations

Time (CDT) Temp. Dew Point Humidity Pressure Visibility Wind Dir Wind Speed Gust Speed Precip Events Conditions
12:49 AM 66.2 °F 55.4 °F 68% 30.08 in 10.0 mi Calm Calm - N/A   Overcast
12:53 AM 66.0 °F 55.9 °F 70% 30.07 in 10.0 mi Calm Calm - N/A   Overcast
1:01 AM 66.9 °F 55.9 °F 68% 30.09 in 10.0 mi Calm Calm - N/A   Overcast
1:53 AM 66.0 °F 57.0 °F 73% 30.07 in 10.0 mi Calm Calm - N/A   Overcast
2:53 AM 66.0 °F 57.9 °F 75% 30.05 in 10.0 mi Calm Calm - N/A   Overcast
3:53 AM 64.0 °F 57.9 °F 80% 30.04 in 10.0 mi Calm Calm - N/A   Mostly Cloudy
4:53 AM 62.1 °F 55.9 °F 80% 30.03 in 10.0 mi Calm Calm - N/A   Clear
5:53 AM 62.1 °F 57.0 °F 84% 30.05 in 10.0 mi Calm Calm - N/A   Overcast
6:53 AM 63.0 °F 57.0 °F 81% 30.04 in 10.0 mi Calm Calm - N/A   Overcast
7:53 AM 64.0 °F 55.9 °F 75% 30.04 in 10.0 mi SE 3.5 mph - N/A   Clear
8:53 AM 68.0 °F 55.0 °F 63% 30.03 in 10.0 mi SE 5.8 mph - N/A   Clear
9:53 AM 72.0 °F 53.1 °F 51% 30.03 in 10.0 mi SSE 4.6 mph - N/A   Scattered Clouds
10:53 AM 73.0 °F 57.0 °F 57% 30.02 in 10.0 mi SSE 3.5 mph - N/A   Clear
11:53 AM 73.9 °F 59.0 °F 59% 30.01 in 10.0 mi SSW 5.8 mph - N/A   Mostly Cloudy
12:33 PM 73.9 °F 59.0 °F 59% 30.02 in 10.0 mi SSW 8.1 mph - N/A   Overcast
12:53 PM 73.9 °F 60.1 °F 62% 30.00 in 10.0 mi SSW 6.9 mph - N/A   Overcast
1:53 PM 75.0 °F 61.0 °F 62% 29.97 in 10.0 mi South 5.8 mph - N/A   Mostly Cloudy
2:46 PM 73.9 °F 61.0 °F 64% 29.95 in 10.0 mi South 3.5 mph - N/A   Overcast
2:53 PM 75.0 °F 61.0 °F 62% 29.93 in 10.0 mi South 6.9 mph - N/A   Mostly Cloudy
3:25 PM 73.9 °F 62.1 °F 66% 29.94 in 10.0 mi South 4.6 mph - N/A   Mostly Cloudy
3:53 PM 73.9 °F 63.0 °F 68% 29.93 in 10.0 mi SW 3.5 mph - N/A   Overcast
4:53 PM 73.0 °F 63.0 °F 71% 29.89 in 10.0 mi SSE 4.6 mph - N/A   Overcast
5:15 PM 73.0 °F 64.0 °F 73% 29.88 in 10.0 mi SSE 9.2 mph - N/A   Mostly Cloudy
5:40 PM 72.0 °F 64.0 °F 76% 29.91 in 10.0 mi South 3.5 mph - N/A   Mostly Cloudy
5:53 PM 72.0 °F 64.0 °F 76% 29.88 in 10.0 mi SSE 3.5 mph - N/A   Overcast
6:31 PM 71.1 °F 64.0 °F 78% 29.90 in 10.0 mi SSW 6.9 mph - N/A   Mostly Cloudy
6:53 PM 71.1 °F 64.9 °F 81% 29.89 in 10.0 mi South 4.6 mph - N/A   Overcast
7:53 PM 70.0 °F 64.9 °F 84% 29.90 in 10.0 mi Calm Calm - N/A   Overcast
8:53 PM 69.1 °F 64.9 °F 87% 29.90 in 10.0 mi Calm Calm - N/A   Overcast
9:12 PM 69.1 °F 64.0 °F 84% 29.89 in 10.0 mi SSE 3.5 mph - N/A   Overcast
9:53 PM 69.1 °F 64.9 °F 87% 29.88 in 10.0 mi Calm Calm - N/A   Overcast
10:00 PM 69.1 °F 64.9 °F 87% 29.90 in 10.0 mi Calm Calm - N/A   Overcast
10:29 PM 68.0 °F 64.9 °F 90% 29.89 in 6.0 mi Calm Calm - 0.01 in Rain Light Rain
10:53 PM 68.0 °F 64.9 °F 90% 29.87 in 4.0 mi Calm Calm - 0.02 in   Overcast
11:02 PM 68.0 °F 64.9 °F 90% 29.89 in 5.0 mi Calm Calm - 0.00 in Rain Light Rain
11:34 PM 68.0 °F 64.9 °F 90% 29.88 in 3.0 mi Calm Calm - 0.01 in Rain Light Rain
11:40 PM 68.0 °F 64.9 °F 90% 29.88 in 3.0 mi Calm Calm - 0.01 in Rain Light Rain
11:53 PM 68.0 °F 64.9 °F 90% 29.86 in 4.0 mi Calm Calm - 0.02 in   Overcast